Location: Chèvreville
(49.1099°N, 2.8495°E)
Time: 21:21:51
(UTC+00:00)

Cosmos 1844 - Visible Passes

Search period start: 30 May 2024 00:00
Search period end: 09 June 2024 00:00
Orbit: 820 x 869 km, 70.9° (Epoch: 30 May)

Date Brightness Start Highest point End Pass type
(mag) Time Alt. Az. Time Alt. Az. Time Alt. Az.
06 Jun 6.3 02:55:33 10° SE 02:58:25 14° E 03:01:18 10° ENE visible
07 Jun 6.2 02:41:33 10° SE 02:44:15 14° E 02:46:58 10° ENE visible
08 Jun 6.2 02:27:34 10° ESE 02:30:05 13° E 02:32:37 10° ENE visible
